Tracking 18876 objects as of 14-Dec-2017
HD Live streaming from Space Station
objects crossing your sky now

ARIANE 44L+3 R/B

Track ARIANE 44L+3 R/B now!


NORAD ID: 23866
Int'l Code: 1996-030C
Perigee: 317.9 km
Apogee: 30,556.3 km
Inclination: 4.3 °
Period: 534.2 minutes
Semi major axis: 21808 km
RCS: 20.3809 m2 (large)
Launch date: May 16, 1996
Source: France (FR)
Launch site: FRENCH GUIANA (FRGUI)

Note: This is a ROCKET BODY
aabbcc
Your satellite tracking list
Your tracking list is empty




NASA's NSSDC Master Catalog

Two Line Element Set (TLE):
1 23866U 96030C   17347.28787544  .00000229  00000-0  32238-3 0  9994
2 23866   4.3274  76.4095 6932844 124.5925 320.5320  2.69572667195866
Source of the keplerian elements: AFSPC